[[{"header":{"parameterUnit":"m.s-1","parameterCategory":1,"la1":30.2991,"la2":30.254,"lo1":-89.0895,"lo2":-89.0444,"dy":0.0017,"dx":0.0017,"nx":28,"ny":28,"refTime":"2024-07-07T21:00:00:Z","depth":0,"parameterNumber":2,"parameterNumberName":"U-component_of_WINDS"},"data":[0,0,0,0,0,0,0,0,0,0,0,0,0,0,0,0,0,0,0,0,0,0,0,0,0,0,0,0,0,0,0,0,0,0,0,0,0,0,0,0,0,0,0,0,0,0,0,0,0,0,0,0,0,0,0,0,0,0,-1.4476,-1.4475,0,-1.4404,-1.4403,-1.4402,-1.4316,-1.4315,-1.4313,-1.4312,-1.4238,-1.4237,-1.4237,0,0,0,0,0,0,0,0,0,0,0,0,0,-1.454,-1.4539,-1.4476,-1.4475,-1.4474,-1.4404,-1.4403,-1.4402,-1.4316,-1.4315,-1.4313,-1.4311,-1.4238,-1.4237,-1.4237,0,0,0,0,0,0,0,0,0,0,0,0,0,-1.4495,-1.4539,-1.4476,-1.4423,-1.4417,-1.4404,-1.4403,-1.4402,-1.4316,-1.4315,-1.4313,-1.4311,-1.4239,-1.4238,-1.4236,-1.4269,0,0,-1.4233,-1.4233,0,0,0,0,0,0,0,0,-1.4497,-1.4492,-1.4432,-1.4427,-1.442,-1.4367,-1.4398,-1.4357,-1.4317,-1.4355,-1.4312,-1.431,-1.4283,-1.4278,-1.4268,-1.4266,-1.4263,-1.4233,-1.4232,-1.4232,-1.4232,0,0,0,0,0,0,0,-1.4501,-1.4495,-1.4447,-1.4431,-1.4424,-1.4403,-1.4394,-1.439,-1.4331,-1.4351,-1.4345,-1.4338,-1.4279,-1.427,-1.4266,-1.4262,-1.4233,-1.4232,-1.4231,-1.4231,-1.4283,-1.4285,0,0,0,0,0,0,-1.4512,-1.4498,-1.445,-1.4445,-1.4455,-1.4403,-1.4394,-1.4386,-1.4331,-1.432,-1.4339,-1.4334,-1.4273,-1.4268,-1.4263,-1.4299,-1.4232,-1.4231,-1.423,-1.4281,-1.4283,-1.4286,0,0,0,0,0,0,-1.4513,-1.4508,-1.4453,-1.447,-1.4461,-1.4404,-1.4397,-1.4386,-1.4376,-1.4321,-1.431,-1.4341,-1.4271,-1.4265,-1.4269,-1.4295,-1.423,-1.4229,-1.4279,-1.4282,-1.4285,-1.437,0,0,0,0,0,0,-1.4516,-1.4509,-1.4521,-1.4471,-1.4461,-1.446,-1.4398,-1.4386,-1.4375,-1.4367,-1.432,-1.431,-1.4269,-1.4271,-1.4268,-1.4292,-1.4229,-1.4276,-1.428,-1.4284,-1.4365,-1.4376,-1.4385,0,0,0,0,0,-1.4518,-1.4548,-1.4522,-1.4517,-1.4474,-1.4461,-1.4455,-1.4407,-1.4377,-1.4389,-1.4353,-1.4312,-1.4292,-1.4272,-1.4268,-1.4292,-1.4274,-1.4279,-1.4283,-1.436,-1.4374,-1.4385,0,0,0,0,0,0,-1.4604,-1.4541,-1.4511,-1.4526,-1.45,-1.4447,-1.446,-1.4423,-1.4405,-1.4398,-1.4339,-1.4329,-1.434,-1.4316,-1.4295,-1.4321,-1.4277,-1.4281,-1.4337,-1.4349,-1.4359,-1.4366,-1.4228,0,0,0,0,0,-1.4624,-1.4619,-1.4564,-1.4582,-1.457,-1.4518,-1.451,-1.4475,-1.4446,-1.4434,-1.4399,-1.4372,-1.436,-1.4353,-1.4338,-1.436,-1.4349,-1.4375,-1.4385,-1.4394,-1.4399,-1.4409,-1.442,-1.4301,-1.4301,-1.4301,0,0,-1.4667,-1.4631,-1.4632,-1.4598,-1.4574,-1.457,-1.4509,-1.4507,-1.4503,-1.4434,-1.4436,-1.4409,-1.4375,-1.4388,-1.4392,-1.4368,-1.4429,-1.44,-1.4407,-1.4407,-1.4415,-1.4426,-1.4436,-1.4304,-1.4303,-1.4303,0,0,-1.4742,-1.4715,-1.4727,-1.4704,-1.4667,-1.4632,-1.4635,-1.4588,-1.4567,-1.4568,-1.4516,-1.4511,-1.4491,-1.4468,-1.4455,-1.4522,-1.4483,-1.4518,-1.4572,-1.4583,-1.4593,-1.4601,-1.4625,-1.4635,-1.4523,-1.4523,-1.4523,0,-1.48,-1.4791,-1.4738,-1.474,-1.4727,-1.4663,-1.4675,-1.4655,-1.4616,-1.4609,-1.4583,-1.4557,-1.4529,-1.4536,-1.4553,-1.4543,-1.4545,-1.4524,-1.4595,-1.4603,-1.461,-1.4633,-1.4642,-1.4528,-1.4527,-1.4527,-1.4526,0,-1.4864,-1.4859,-1.4873,-1.4838,-1.4826,-1.4833,-1.4781,-1.4776,-1.4742,-1.4709,-1.4711,-1.4676,-1.4653,-1.4652,-1.4619,-1.4655,-1.4642,-1.4606,-1.4561,-1.4627,-1.4647,-1.4656,-1.4534,-1.4533,-1.4531,-1.453,0,0,-1.4993,-1.4927,-1.4933,-1.4916,-1.4871,-1.4866,-1.487,-1.4848,-1.4845,-1.482,-1.4823,-1.4807,-1.4774,-1.4758,-1.4722,-1.4731,-1.4787,-1.4694,-1.4693,-1.4714,-1.4826,-1.4854,-1.4865,-1.4761,-1.4762,-1.4763,-1.4829,0,-1.5061,-1.5065,-1.5017,-1.5033,-1.5028,-1.4967,-1.4971,-1.4944,-1.4913,-1.4905,-1.487,-1.4861,-1.4818,-1.4808,-1.4814,-1.4779,-1.4809,-1.4774,-1.4763,-1.4763,-1.4775,-1.4876,-1.4905,-1.4969,-1.4837,-1.4838,-1.4839,0,-1.5142,-1.5121,-1.5138,-1.5092,-1.5088,-1.5092,-1.5068,-1.506,-1.5028,-1.5005,-1.4988,-1.4946,-1.4947,-1.4903,-1.4903,-1.488,-1.4872,-1.4854,-1.4856,-1.4854,-1.4806,-1.4878,-1.4988,-1.4999,-1.4851,-1.485,-1.4849,0,-1.5236,-1.5212,-1.5219,-1.5206,-1.5152,-1.5157,-1.5134,-1.51,-1.509,-1.5069,-1.5062,-1.5041,-1.503,-1.5015,-1.4969,-1.4941,-1.4975,-1.4927,-1.4956,-1.4958,-1.4968,-1.4968,-1.508,-1.4961,-1.4961,-1.4961,-1.496,0,-1.5318,-1.5331,-1.526,-1.5265,-1.5277,-1.5221,-1.5235,-1.5207,-1.5177,-1.5175,-1.512,-1.5119,-1.5057,-1.505,-1.5013,-1.502,-1.5015,-1.4997,-1.4987,-1.5002,-1.5005,-1.4998,-1.4993,-1.4963,-1.4962,-1.4962,-1.4962,0,-1.5426,-1.5379,-1.5382,-1.5331,-1.5318,-1.533,-1.5286,-1.5288,-1.5254,-1.5252,-1.5248,-1.5195,-1.5183,-1.5134,-1.5111,-1.5086,-1.5105,-1.5085,-1.5116,-1.511,-1.5143,-1.5141,-1.5256,-1.5268,-1.514,-1.5142,-1.5143,0,-1.5482,-1.549,-1.544,-1.5434,-1.5415,-1.5407,-1.5396,-1.5341,-1.5333,-1.5296,-1.5303,-1.5286,-1.5271,-1.5254,-1.5213,-1.5195,-1.5175,-1.5216,-1.5172,-1.5187,-1.5177,-1.5178,-1.5179,-1.5227,-1.5228,-1.523,-1.5231,0,-1.5588,-1.5564,-1.5551,-1.5529,-1.5518,-1.5499,-1.5476,-1.5475,-1.5414,-1.5407,-1.5394,-1.5382,-1.5357,-1.5342,-1.5317,-1.5293,-1.5253,-1.5245,-1.5251,-1.5268,-1.5286,-1.5278,-1.5144,-1.5243,-1.5242,-1.5241,-1.524,-1.524,-1.5672,-1.5677,-1.5642,-1.5629,-1.5606,-1.5586,-1.5586,-1.5551,-1.554,-1.5516,-1.5484,-1.5475,-1.5442,-1.5404,-1.5384,-1.5377,-1.5354,-1.5362,-1.5365,-1.5368,-1.5376,-1.5286,-1.5371,-1.5371,-1.5371,-1.537,-1.537,0,-1.5776,-1.5751,-1.5739,-1.5709,-1.5699,-1.566,-1.5633,-1.5627,-1.562,-1.5593,-1.5578,-1.5564,-1.5548,-1.5506,-1.5486,-1.5488,-1.5469,-1.5485,-1.5485,-1.5481,-1.5397,-1.5394,-1.5501,-1.5501,-1.5501,-1.5501,-1.5501,-1.5501,-1.5829,-1.5836,-1.5808,-1.5802,-1.5776,-1.5767,-1.5755,-1.5736,-1.5714,-1.57,-1.5687,-1.5659,-1.5626,-1.5603,-1.5588,-1.5575,-1.5571,-1.5594,-1.5576,-1.5499,-1.5487,-1.5475,-1.5472,-1.5593,-1.5594,-1.566,-1.5661,-1.5662]},{"header":{"parameterUnit":"m.s-1","parameterCategory":1,"la1":30.2991,"la2":30.254,"lo1":-89.0895,"lo2":-89.0444,"dy":0.0017,"dx":0.0017,"nx":28,"ny":28,"refTime":"2024-07-07T21:00:00:Z","depth":0,"parameterNumber":3,"parameterNumberName":"V-component_of_WINDS"},"data":[0,0,0,0,0,0,0,0,0,0,0,0,0,0,0,0,0,0,0,0,0,0,0,0,0,0,0,0,0,0,0,0,0,0,0,0,0,0,0,0,0,0,0,0,0,0,0,0,0,0,0,0,0,0,0,0,0,0,4.5236,4.5237,0,4.527,4.527,4.527,4.5188,4.5185,4.5182,4.518,4.5211,4.5215,4.5218,0,0,0,0,0,0,0,0,0,0,0,0,0,4.5097,4.51,4.5236,4.5237,4.5237,4.527,4.527,4.527,4.5188,4.5185,4.5182,4.5179,4.521,4.5214,4.5218,0,0,0,0,0,0,0,0,0,0,0,0,0,4.5147,4.5101,4.5236,4.52,4.5197,4.5269,4.527,4.5271,4.5189,4.5185,4.5181,4.5177,4.5209,4.5214,4.5219,4.5327,0,0,4.5234,4.5236,0,0,0,0,0,0,0,0,4.5144,4.5152,4.5205,4.5203,4.5199,4.5221,4.5232,4.5289,4.519,4.5192,4.518,4.5175,4.5217,4.5221,4.5236,4.5328,4.533,4.5234,4.5237,4.5239,4.524,0,0,0,0,0,0,0,4.5141,4.515,4.5249,4.5206,4.5202,4.5181,4.5183,4.5243,4.5226,4.5191,4.5185,4.5191,4.5215,4.5232,4.5236,4.533,4.5234,4.5238,4.5241,4.5243,4.5511,4.5515,0,0,0,0,0,0,4.5142,4.5148,4.5248,4.525,4.5162,4.5186,4.5189,4.5218,4.5225,4.5223,4.5194,4.5187,4.5225,4.5231,4.5237,4.5362,4.5239,4.5244,4.5246,4.5507,4.5512,4.5516,0,0,0,0,0,0,4.514,4.5152,4.5247,4.5197,4.5208,4.5193,4.5225,4.522,4.5237,4.5227,4.5223,4.5214,4.5222,4.523,4.5305,4.5362,4.5246,4.525,4.5502,4.5508,4.5514,4.5616,0,0,0,0,0,0,4.5136,4.5152,4.5194,4.5199,4.5211,4.5316,4.5229,4.5224,4.5246,4.5236,4.5245,4.5243,4.522,4.5298,4.531,4.5367,4.5254,4.5496,4.5505,4.5512,4.5607,4.5625,4.564,0,0,0,0,0,4.5132,4.5221,4.5196,4.5209,4.5263,4.5319,4.5326,4.5298,4.5251,4.5292,4.5286,4.5242,4.5355,4.5306,4.5319,4.5379,4.5493,4.5502,4.5511,4.56,4.5621,4.5639,0,0,0,0,0,0,4.5222,4.5221,4.5194,4.5288,4.5304,4.5305,4.5356,4.5322,4.5352,4.5342,4.5306,4.5309,4.539,4.5392,4.5338,4.5483,4.5415,4.5428,4.5478,4.5499,4.5515,4.5512,4.5258,0,0,0,0,0,4.5253,4.5299,4.5296,4.5379,4.5389,4.5371,4.5395,4.5372,4.5388,4.5394,4.5393,4.5409,4.5447,4.5473,4.5508,4.5608,4.5607,4.5655,4.5671,4.5684,4.5695,4.5746,4.5766,4.5547,4.5547,4.5547,0,0,4.5317,4.5322,4.5354,4.5397,4.5407,4.5455,4.5378,4.5432,4.5466,4.5402,4.5472,4.5472,4.5487,4.5574,4.5612,4.5578,4.5756,4.5696,4.5707,4.571,4.5757,4.5778,4.5797,4.5553,4.5552,4.5551,0,0,4.5458,4.5467,4.5537,4.5549,4.5565,4.5553,4.557,4.5576,4.5574,4.5644,4.5596,4.5636,4.5704,4.5716,4.5731,4.5876,4.5837,4.5889,4.5973,4.6023,4.604,4.6055,4.6105,4.6124,4.5899,4.59,4.59,0,4.5535,4.5606,4.5577,4.5634,4.5653,4.5598,4.5667,4.568,4.5707,4.5721,4.5683,4.5766,4.5772,4.586,4.5896,4.5911,4.5927,4.5887,4.604,4.6055,4.6069,4.6116,4.6135,4.5906,4.5905,4.5904,4.5904,0,4.5699,4.5749,4.5803,4.5831,4.5857,4.592,4.5898,4.5928,4.5904,4.5895,4.5966,4.5972,4.6007,4.6026,4.6003,4.6111,4.6089,4.6047,4.5978,4.6096,4.614,4.6158,4.5914,4.5912,4.591,4.5909,0,0,4.5897,4.5908,4.5928,4.5939,4.5953,4.599,4.605,4.6085,4.611,4.6131,4.6178,4.6237,4.6197,4.6215,4.6192,4.6236,4.6348,4.6187,4.6187,4.6216,4.6466,4.6496,4.6518,4.6323,4.6326,4.6329,4.6464,0,4.6034,4.6138,4.6113,4.6214,4.6259,4.6207,4.6259,4.6272,4.6266,4.6302,4.6294,4.6336,4.6282,4.6291,4.6333,4.6326,4.6398,4.6316,4.6365,4.6368,4.6362,4.6541,4.6574,4.67,4.6481,4.6484,4.6486,0,4.6208,4.6236,4.6342,4.6348,4.6366,4.6413,4.6442,4.6478,4.6491,4.6483,4.6503,4.6471,4.6528,4.6461,4.6538,4.6484,4.6502,4.6502,4.6506,4.6508,4.6433,4.6546,4.674,4.6759,4.6513,4.651,4.6508,0,4.6339,4.6403,4.6475,4.6486,4.6495,4.6529,4.6534,4.6544,4.6566,4.6592,4.6605,4.6637,4.6653,4.6678,4.6655,4.6608,4.6736,4.6666,4.6729,4.673,4.6757,4.6755,4.6956,4.6773,4.6772,4.6772,4.6772,0,4.6494,4.6561,4.6533,4.6577,4.665,4.662,4.6693,4.6692,4.6701,4.6743,4.67,4.674,4.6708,4.6745,4.6727,4.6793,4.6802,4.6796,4.679,4.6798,4.6799,4.6809,4.6799,4.6777,4.6776,4.6775,4.6774,0,4.6653,4.6637,4.6711,4.6714,4.6716,4.6769,4.677,4.681,4.6801,4.6854,4.6865,4.685,4.6891,4.6871,4.6913,4.6901,4.6986,4.6969,4.6982,4.6977,4.704,4.7034,4.7252,4.7278,4.708,4.7082,4.7084,0,4.6752,4.6802,4.681,4.6835,4.6843,4.6885,4.6907,4.6879,4.6904,4.6923,4.696,4.6998,4.7026,4.7093,4.7085,4.7117,4.71,4.7174,4.7104,4.7111,4.7099,4.7095,4.7099,4.7188,4.719,4.7192,4.7194,0,4.6929,4.6918,4.6953,4.6984,4.7012,4.7035,4.7055,4.7078,4.7051,4.708,4.7122,4.7144,4.7187,4.7224,4.7252,4.7255,4.722,4.7216,4.7232,4.724,4.7245,4.7241,4.7018,4.7211,4.7209,4.7208,4.7207,4.7206,4.7059,4.7101,4.7112,4.7151,4.7163,4.7182,4.722,4.7215,4.725,4.7283,4.7265,4.7313,4.7324,4.7358,4.7366,4.7402,4.7373,4.7396,4.7402,4.7408,4.7415,4.724,4.7408,4.7407,4.7407,4.7406,4.7406,0,4.7232,4.7237,4.7274,4.7302,4.7333,4.7298,4.7317,4.7345,4.7388,4.7402,4.743,4.7478,4.7513,4.7508,4.754,4.757,4.7555,4.7579,4.7576,4.7577,4.7441,4.7423,4.7592,4.7591,4.7591,4.7591,4.7591,4.7591,4.7326,4.7394,4.7385,4.7457,4.7462,4.7509,4.7523,4.754,4.755,4.7605,4.7635,4.7632,4.7638,4.767,4.77,4.7698,4.7711,4.7741,4.7733,4.7605,4.7587,4.7569,4.7552,4.7745,4.7745,4.7866,4.7867,4.7868]}]]